TimeMDT,TemperatureF,Dew PointF,Humidity,Sea Level PressureIn,VisibilityMPH,Wind Direction,Wind SpeedMPH,Gust SpeedMPH,PrecipitationIn,Events,Conditions,WindDirDegrees,DateUTC
12:53 AM,68.0,57.0,68,30.06,10.0,NW,8.1,-,N/A,,Clear,320,2013-06-27 06:53:00
1:53 AM,64.0,55.9,75,30.07,10.0,WNW,6.9,-,N/A,,Clear,290,2013-06-27 07:53:00
2:53 AM,63.0,55.0,75,30.08,10.0,NW,4.6,-,N/A,,Clear,310,2013-06-27 08:53:00
3:53 AM,62.1,55.0,78,30.08,10.0,Calm,Calm,-,N/A,,Clear,0,2013-06-27 09:53:00
4:53 AM,59.0,55.0,87,30.09,10.0,West,4.6,-,N/A,,Clear,260,2013-06-27 10:53:00
5:53 AM,57.9,54.0,87,30.10,10.0,West,5.8,-,N/A,,Clear,270,2013-06-27 11:53:00
6:53 AM,59.0,54.0,83,30.12,10.0,WSW,3.5,-,N/A,,Clear,240,2013-06-27 12:53:00
7:53 AM,62.1,55.0,78,30.14,10.0,WSW,3.5,-,N/A,,Clear,240,2013-06-27 13:53:00
8:53 AM,66.0,55.9,70,30.14,10.0,Calm,Calm,-,N/A,,Clear,0,2013-06-27 14:53:00
9:53 AM,70.0,59.0,68,30.16,10.0,Calm,Calm,-,N/A,,Clear,0,2013-06-27 15:53:00
10:53 AM,75.0,57.9,55,30.15,10.0,Calm,Calm,-,N/A,,Clear,0,2013-06-27 16:53:00
11:53 AM,79.0,57.0,47,30.15,10.0,Calm,Calm,-,N/A,,Clear,0,2013-06-27 17:53:00
12:53 PM,81.0,57.0,44,30.12,10.0,ESE,3.5,-,N/A,,Clear,110,2013-06-27 18:53:00
1:53 PM,84.0,57.9,41,30.11,10.0,SSE,4.6,-,N/A,,Clear,160,2013-06-27 19:53:00
2:53 PM,89.1,57.0,34,30.09,10.0,Variable,3.5,-,N/A,,Clear,0,2013-06-27 20:53:00
3:53 PM,90.0,53.1,28,30.07,10.0,Calm,Calm,-,N/A,,Clear,0,2013-06-27 21:53:00
4:53 PM,93.0,50.0,23,30.06,10.0,Variable,4.6,-,N/A,,Clear,0,2013-06-27 22:53:00
5:53 PM,93.0,53.1,26,30.05,10.0,NE,5.8,-,N/A,,Clear,50,2013-06-27 23:53:00
6:53 PM,93.0,51.1,24,30.03,10.0,NNE,3.5,-,N/A,,Clear,30,2013-06-28 00:53:00
7:53 PM,93.0,50.0,23,30.02,10.0,NNE,4.6,-,N/A,,Clear,20,2013-06-28 01:53:00
8:53 PM,89.1,54.0,30,30.02,10.0,North,3.5,-,N/A,,Clear,350,2013-06-28 02:53:00
9:53 PM,79.0,62.1,56,30.04,10.0,WSW,3.5,-,N/A,,Clear,250,2013-06-28 03:53:00
10:53 PM,75.0,61.0,62,30.06,10.0,Calm,Calm,-,N/A,,Clear,0,2013-06-28 04:53:00
11:53 PM,72.0,59.0,64,30.06,10.0,Calm,Calm,-,N/A,,Clear,0,2013-06-28 05:53:00